Location: Unspecified
(49.2170°N, 0.0000°E)
Time: 08:04:42
(UTC+00:00)

Explorer 7 - Pass Details

Date: 26 January 2021
Orbit: 484 x 677 km, 50.3° (Epoch: 04 March)

Event Time Altitude Azimuth Distance (km) Brightness Sun altitude
Exits shadow 06:19:52 20° 272° (W) 1,217 8.0 -12.8°
Maximum altitude 06:22:28 76° 356° (N) 548 6.7 -12.4°
Drops below altitude 10° 06:26:36 10° 83° (E) 1,826 10.7 -11.8°
Sets 06:28:55 0° 85° (E) 2,756 11.9 -11.4°
